Overview Statistics Trail Chart Weather Telemetry Raw packets
 

This is the latest recevied weather packets stored in our database for station/object W8RSN-13. If no packets are shown the sender has not sent any weather packets the latest 10 day(s).

<< 55 56 57 58 59 60 61 >>
Time Temp. Humidity Pressure Rain* Wind** Luminosity Snow
1788306265 30.56° C 22% 1015.1 hPa - - - -
1788305964 31.11° C 22% 1014.9 hPa - - - -
1788305663 31.11° C 23% 1015.2 hPa - - - -
1788305362 31.67° C 21% 1015.1 hPa - - - -
1788305061 31.67° C 21% 1015.3 hPa - - - -
1788304761 31.67° C 22% 1015.4 hPa - - - -
1788304460 31.67° C 21% 1015.1 hPa - - - -
1788304159 31.67° C 21% 1015 hPa - - - -
1788303858 31.67° C 20% 1015.1 hPa - - - -
1788303557 32.22° C 20% 1015.1 hPa - - - -
1788303256 31.67° C 21% 1015.1 hPa - - - -
1788302955 31.67° C 19% 1015.1 hPa - - - -
1788302675 32.22° C 21% 1015.4 hPa - - - -
1788302374 32.22° C 20% 1015.4 hPa - - - -
1788302073 32.22° C 21% 1015.4 hPa - - - -
1788301772 32.78° C 20% 1015.3 hPa - - - -
1788301471 32.22° C 23% 1015.3 hPa - - - -
1788301170 32.22° C 21% 1015.4 hPa - - - -
1788300869 32.22° C 22% 1015.2 hPa - - - -
1788300568 31.67° C 23% 1015.4 hPa - - - -
1788300268 32.22° C 21% 1015.3 hPa - - - -
1788299966 32.22° C 21% 1015.5 hPa - - - -
1788299365 32.22° C 27% 1015.4 hPa - - - -
1788299064 31.67° C 26% 1015.6 hPa - - - -
1788298763 31.67° C 24% 1015.3 hPa - - - -

* Rain since midnight (hover to see other rain measurements)
** Current wind speed in m/s (hover to see current wind gust speed)